Flag for Norway Weather past 2 weeks in Longyearbyen, Svalbard, Norway

Now
45 °F

Broken clouds.


Feels Like: 39 °F
Forecast: 34 / 42 °F
Wind: 12 mph from Northeast

Location: Svalbard Lufthavn

Current Time: Jul 30, 2014 at 8:52:30 AM

Latest Report: Jul 30, 2014 at 7:50 AM


Visibility: N/A

Pressure: 29.92 "Hg

Humidity: 71%

Dew point: 36 °F

Location of LongyearbyenLocation

Historic Weather in Longyearbyen — Graph

°F

Longyearbyen temperature yesterday

Maximum temperature yesterday: 48 °F (at 2:50 PM)
Minimum temperature yesterday: 45 °F (at 12:50 AM)
Average temperature yesterday: 46 °F

Past Weeks' High & Low Weather Summary

 TemperatureHumidityPressure
High52 °F (Jul 15, 6:50 PM)100% (Jul 18, 5:50 PM)30.21 "Hg (Jul 18, 5:50 PM)
Low39 °F (Jul 25, 3:50 AM)57% (Jul 29, 8:50 AM)29.65 "Hg (Jul 24, 12:50 PM)
Average46 °F82%29.95 "Hg
* Reported Jul 15 6:50 AM — Jul 30 6:50 AM, Longyearbyen, Weather by CustomWeather, © 2014

Note: Actual official high and low records may vary slightly from our data, if they occured in-between our weather recording intervals... More about our weather records

Advertising

Longyearbyen weather history for previous 24 hours

 ConditionsComfort  
Time TempWeatherWind HumidityBarometerVisibility
6:50 AM
Jul 30
45 °FBroken clouds.6 mph71%29.92 "HgN/A
5:50 AM43 °FLight rain. Broken clouds.2 mph76%29.92 "HgN/A
4:50 AM43 °FLight rain. Broken clouds.5 mph76%29.92 "HgN/A
3:50 AM45 °FBroken clouds.1 mph71%29.92 "HgN/A
2:50 AM45 °FPartly sunny.6 mph71%29.92 "HgN/A
1:50 AM45 °FPartly sunny.8 mph71%29.95 "HgN/A
12:50 AM45 °FPartly sunny.10 mph76%29.95 "HgN/A
11:50 PM
Jul 29
45 °FPartly sunny.10 mph71%29.95 "HgN/A
10:50 PM46 °FPartly sunny.7 mph66%29.95 "HgN/A
9:50 PM46 °FPartly sunny.8 mph62%29.95 "HgN/A
8:50 PM46 °FPartly sunny.9 mph66%29.95 "HgN/A
7:50 PM46 °FBroken clouds.12 mph62%29.95 "HgN/A
6:50 PM48 °FScattered clouds.13 mph58%29.95 "HgN/A
5:50 PM48 °FScattered clouds.13 mph58%29.98 "HgN/A
4:50 PM48 °FScattered clouds.14 mph62%29.98 "HgN/A
3:50 PM48 °FScattered clouds.12 mph58%29.98 "HgN/A
2:50 PM48 °FScattered clouds.10 mph58%29.98 "HgN/A
1:50 PM46 °FPartly sunny.10 mph66%29.98 "HgN/A
12:50 PM46 °FPartly sunny.10 mph66%29.98 "HgN/A
11:50 AM46 °FPartly sunny.6 mph62%29.98 "HgN/A
10:50 AM46 °FPartly sunny.6 mph57%29.98 "HgN/A
9:50 AM46 °FPartly sunny.7 mph66%29.98 "HgN/A
8:50 AM46 °FPartly sunny.6 mph57%29.98 "HgN/A
Weather by CustomWeather, © 2014

See weather overviewHow to use our weather pages